Temp
1 1 1 1 1 1 1 1 1 1 1 1 1 1 1 1 1 1 1 0 1 1 1 1 1 1 1 1 1 1 1 1 1 1 1 1 0 0 0 1 1 1 1 1 1 2 2 2 2 2 2 2
1 1 1 1 1 1 1 1 1 1 0 0 0 0 0 0 0 0 0 0 -0 -0 -0 0 0 0 0 0 -0 -0 0 0 0 0 0 0 0 0 0 0 0 0 1 1 1 1 1 1 1 1 1 1
1 1 1 1 1 1 0 0 0 0 0 0 -0 -0 -0 -0 -0 -0 -0 -0 -0 -1 -1 -1 -1 -1 -1 -1 -1 -1 -1 -1 -1 -0 -0 -0 -0 -0 -0 -0 -0 -0 -0 0 0 0 1 1 1 1 1 1
0 0 0 0 0 0 0 -0 -0 -0 -0 -0 -0 -0 -1 -1 -1 -1 -1 -1 -1 -1 -1 -1 -1 -1 -1 -1 -1 -1 -1 -1 -1 -1 -1 -1 -1 -1 -1 -1 -1 -1 -0 -0 -0 -0 -0 -0 0 0 0 0
-0 -0 -0 -0 -0 -0 -0 -0 -1 -1 -1 -1 -1 -1 -1 -1 -1 -1 -1 -1 -1 -1 -2 -2 -2 -2 -2 -2 -2 -2 -2 -2 -2 -2 -2 -2 -1 -1 -1 -1 -1 -1 -1 -1 -1 -1 -1 -1 -1 -0 -0 -0
-0 -0 -0 -0 -1 -1 -1 -1 -1 -1 -1 -1 -2 -2 -2 -2 -2 -2 -2 -2 -2 -2 -2 -2 -2 -2 -2 -2 -2 -2 -2 -2 -2 -2 -2 -2 -2 -2 -2 -2 -2 -2 -2 -2 -1 -1 -1 -1 -1 -1 -1 -1
-1 -1 -1 -1 -1 -1 -1 -1 -2 -2 -2 -2 -2 -2 -2 -2 -2 -2 -2 -2 -2 -2 -3 -3 -3 -3 -3 -3 -3 -3 -3 -3 -3 -3 -3 -3 -3 -3 -2 -2 -2 -2 -2 -2 -2 -2 -2 -2 -2 -1 -1 -1
-1 -1 -1 -1 -1 -2 -2 -2 -2 -2 -2 -2 -2 -2 -2 -2 -2 -3 -3 -3 -3 -3 -3 -3 -3 -3 -3 -3 -3 -3 -3 -3 -3 -3 -3 -3 -3 -3 -3 -3 -3 -3 -3 -3 -3 -3 -3 -2 -2 -2 -2 -2
-1 -1 -2 -2 -2 -2 -2 -2 -2 -2 -2 -2 -2 -2 -2 -2 -2 -3 -3 -3 -3 -3 -3 -3 -3 -3 -3 -3 -3 -3 -3 -3 -3 -3 -3 -3 -3 -3 -3 -3 -3 -3 -3 -3 -3 -3 -3 -3 -3 -3 -3 -3
-2 -2 -2 -2 -2 -2 -2 -2 -2 -2 -2 -2 -2 -2 -2 -2 -2 -3 -3 -3 -3 -3 -3 -3 -3 -3 -3 -3 -3 -3 -3 -4 -4 -4 -3 -3 -3 -3 -3 -3 -3 -3 -3 -3 -3 -3 -3 -3 -3 -3 -3 -3
-2 -2 -2 -2 -2 -2 -2 -2 -2 -2 -2 -2 -2 -2 -2 -2 -2 -2 -3 -3 -3 -3 -3 -3 -3 -3 -3 -3 -3 -3 -4 -4 -4 -4 -4 -4 -4 -4 -4 -4 -4 -4 -4 -4 -4 -4 -4 -4 -4 -4 -4 -4
-2 -2 -2 -2 -2 -2 -2 -2 -2 -2 -2 -2 -2 -2 -2 -2 -3 -3 -3 -3 -3 -3 -3 -3 -3 -3 -3 -3 -4 -4 -4 -4 -4 -4 -4 -4 -4 -4 -4 -4 -4 -4 -4 -4 -4 -4 -4 -4 -4 -4 -4 -4
-2 -2 -2 -2 -2 -2 -2 -2 -2 -2 -3 -3 -3 -3 -3 -3 -3 -3 -3 -3 -3 -3 -3 -3 -4 -4 -4 -4 -4 -4 -4 -4 -4 -4 -4 -4 -4 -4 -4 -4 -4 -4 -4 -4 -4 -4 -4 -4 -4 -4 -4 -4
-2 -2 -2 -2 -2 -2 -2 -3 -3 -3 -3 -3 -3 -3 -3 -3 -3 -3 -3 -4 -4 -4 -4 -4 -4 -4 -4 -4 -4 -4 -4 -4 -4 -4 -4 -4 -4 -4 -4 -4 -4 -4 -4 -5 -5 -5 -5 -5 -5 -5 -5 -5
-2 -2 -2 -2 -3 -3 -3 -3 -3 -3 -3 -3 -3 -4 -4 -4 -4 -4 -4 -4 -4 -4 -4 -4 -4 -5 -5 -5 -5 -4 -4 -4 -4 -4 -4 -4 -5 -5 -5 -5 -5 -5 -5 -5 -5 -5 -5 -5 -5 -5 -5 -5
-2 -3 -3 -3 -3 -3 -3 -3 -4 -4 -4 -4 -4 -4 -4 -4 -4 -4 -4 -4 -4 -5 -5 -5 -5 -5 -5 -5 -5 -5 -5 -5 -5 -5 -5 -5 -5 -5 -5 -5 -5 -5 -5 -5 -5 -5 -5 -5 -5 -5 -5 -5
-3 -3 -3 -3 -3 -4 -4 -4 -4 -4 -4 -4 -4 -4 -4 -5 -5 -5 -5 -5 -5 -5 -5 -5 -5 -5 -5 -5 -5 -5 -5 -5 -5 -5 -5 -5 -5 -5 -5 -5 -5 -5 -5 -5 -5 -5 -5 -5 -5 -5 -5 -5
-3 -3 -3 -3 -4 -4 -4 -4 -4 -4 -4 -5 -5 -5 -5 -5 -5 -5 -5 -5 -5 -5 -5 -5 -5 -5 -5 -5 -5 -5 -6 -6 -6 -6 -6 -6 -6 -6 -6 -6 -6 -5 -5 -5 -5 -6 -5 -5 -6 -5 -6 -6
-3 -3 -3 -4 -4 -4 -4 -5 -5 -5 -5 -5 -5 -5 -5 -5 -5 -5 -5 -5 -5 -5 -5 -5 -6 -6 -6 -6 -6 -6 -6 -6 -6 -6 -6 -6 -6 -6 -6 -6 -6 -6 -6 -6 -6 -6 -6 -6 -6 -6 -6 -6
-4 -4 -4 -4 -4 -5 -5 -5 -5 -5 -5 -5 -5 -5 -5 -6 -6 -6 -6 -6 -6 -6 -6 -6 -6 -6 -6 -6 -6 -6 -6 -6 -6 -6 -6 -6 -6 -6 -6 -6 -6 -6 -6 -6 -7 -7 -7 -7 -7 -6 -6 -6
-4 -4 -4 -5 -5 -5 -5 -5 -5 -5 -5 -6 -6 -6 -6 -6 -6 -6 -6 -6 -6 -6 -6 -6 -6 -6 -6 -6 -7 -7 -7 -7 -7 -7 -7 -7 -7 -7 -7 -7 -7 -7 -7 -7 -7 -7 -7 -7 -7 -7 -7 -7
-4 -5 -5 -5 -5 -5 -5 -6 -6 -6 -6 -6 -6 -6 -6 -6 -6 -6 -6 -6 -6 -6 -7 -7 -7 -7 -7 -7 -7 -7 -7 -7 -7 -7 -7 -7 -7 -7 -7 -7 -7 -7 -7 -7 -7 -7 -8 -8 -8 -8 -7 -7
-5 -5 -5 -5 -5 -5 -6 -6 -6 -6 -6 -6 -6 -6 -6 -6 -6 -6 -6 -7 -7 -7 -7 -7 -7 -7 -7 -7 -7 -7 -7 -7 -7 -8 -8 -8 -8 -8 -8 -8 -8 -8 -8 -8 -8 -8 -8 -8 -8 -8 -8 -8
-5 -5 -5 -5 -5 -5 -6 -6 -6 -6 -6 -6 -6 -6 -6 -6 -6 -7 -7 -7 -7 -7 -7 -7 -8 -8 -8 -8 -8 -8 -8 -8 -8 -8 -8 -8 -8 -8 -8 -8 -8 -8 -8 -8 -8 -8 -8 -8 -9 -9 -9 -9
-5 -5 -5 -5 -5 -5 -6 -6 -6 -6 -6 -6 -6 -6 -6 -7 -7 -7 -7 -7 -7 -8 -8 -8 -8 -8 -8 -8 -8 -8 -8 -8 -8 -8 -8 -8 -8 -8 -8 -9 -9 -9 -9 -9 -9 -9 -9 -9 -9 -9 -9 -9
-5 -5 -5 -5 -5 -6 -6 -6 -6 -6 -6 -6 -6 -7 -7 -7 -7 -7 -7 -8 -8 -8 -8 -8 -8 -8 -9 -9 -9 -9 -9 -9 -8 -8 -9 -9 -9 -9 -9 -9 -9 -9 -9 -9 -9 -9 -9 -9 -9 -9 -9 -9
-5 -5 -5 -5 -6 -6 -6 -6 -6 -6 -6 -7 -7 -7 -7 -7 -7 -8 -8 -8 -8 -8 -8 -9 -9 -9 -9 -9 -9 -9 -9 -9 -9 -9 -9 -9 -9 -9 -9 -9 -9 -9 -10 -10 -10 -10 -10 -10 -10 -10 -10 -9
-5 -5 -5 -6 -6 -6 -6 -6 -6 -6 -7 -7 -7 -7 -7 -8 -8 -8 -8 -8 -9 -9 -9 -9 -9 -9 -9 -9 -9 -9 -9 -9 -9 -9 -9 -9 -9 -10 -10 -10 -10 -10 -10 -10 -11 -11 -11 -11 -11 -11 -11 -10
-5 -6 -6 -6 -6 -6 -6 -6 -6 -7 -7 -7 -7 -7 -8 -8 -8 -8 -9 -9 -9 -9 -10 -10 -10 -10 -10 -10 -10 -10 -10 -10 -10 -10 -10 -10 -10 -10 -10 -10 -10 -10 -10 -11 -11 -12 -12 -12 -12 -12 -12 -11
-6 -6 -6 -6 -6 -6 -6 -6 -7 -7 -7 -7 -7 -8 -8 -8 -8 -9 -9 -9 -9 -9 -10 -10 -10 -10 -10 -10 -10 -10 -10 -10 -10 -10 -10 -10 -11 -11 -11 -11 -11 -11 -11 -11 -12 -12 -13 -13 -13 -13 -13 -13
-6 -6 -6 -6 -6 -7 -7 -7 -7 -7 -8 -8 -8 -8 -8 -8 -9 -9 -9 -9 -9 -10 -10 -10 -10 -10 -11 -11 -11 -11 -11 -11 -11 -11 -11 -11 -11 -11 -11 -12 -12 -12 -12 -12 -12 -13 -13 -14 -14 -14 -14 -14
Height
3160 3159 3158 3158 3157 3157 3157 3156 3156 3155 3155 3154 3154 3153 3153 3152 3152 3151 3151 3150 3149 3149 3148 3147 3147 3147 3146 3146 3145 3146 3145 3146 3146 3146 3145 3145 3145 3144 3144 3144 3144 3144 3144 3144 3144 3144 3144 3144 3144 3144 3144 3144
3158 3158 3157 3156 3156 3155 3155 3154 3154 3153 3153 3152 3152 3151 3151 3150 3150 3149 3148 3148 3147 3146 3146 3145 3145 3144 3144 3143 3142 3142 3142 3142 3142 3143 3143 3142 3142 3141 3141 3141 3141 3141 3141 3141 3141 3141 3141 3141 3141 3141 3141 3141
3156 3156 3155 3155 3154 3153 3152 3152 3151 3151 3151 3150 3150 3149 3148 3148 3147 3147 3146 3145 3145 3144 3143 3143 3142 3142 3141 3140 3140 3139 3139 3139 3139 3139 3139 3139 3139 3138 3138 3138 3138 3138 3138 3138 3138 3138 3138 3138 3138 3138 3138 3138
3154 3153 3153 3152 3152 3151 3150 3150 3149 3148 3148 3147 3147 3146 3146 3145 3144 3144 3143 3143 3142 3141 3141 3140 3140 3139 3139 3138 3137 3137 3136 3136 3135 3135 3136 3136 3136 3135 3135 3135 3134 3135 3135 3135 3135 3135 3135 3135 3135 3135 3135 3135
3152 3151 3151 3150 3149 3149 3148 3147 3147 3146 3145 3145 3144 3144 3143 3142 3142 3141 3140 3140 3139 3139 3138 3137 3137 3136 3136 3135 3134 3134 3133 3133 3132 3132 3132 3132 3132 3132 3132 3131 3131 3131 3131 3132 3132 3132 3132 3132 3132 3132 3132 3132
3150 3149 3149 3148 3147 3147 3146 3145 3144 3144 3143 3142 3142 3141 3140 3140 3139 3138 3138 3137 3136 3136 3135 3134 3133 3133 3132 3132 3131 3131 3130 3129 3129 3129 3128 3128 3128 3128 3128 3128 3127 3127 3127 3127 3128 3128 3128 3128 3128 3128 3129 3129
3148 3147 3147 3146 3145 3144 3144 3143 3142 3141 3141 3140 3139 3139 3138 3137 3137 3136 3135 3134 3134 3133 3132 3131 3131 3130 3129 3129 3128 3127 3127 3126 3125 3125 3125 3124 3124 3124 3124 3124 3124 3123 3123 3123 3123 3124 3124 3124 3124 3124 3125 3125
3146 3145 3145 3144 3143 3142 3142 3141 3140 3139 3139 3138 3137 3136 3136 3135 3134 3133 3133 3132 3131 3130 3130 3129 3128 3127 3127 3126 3125 3125 3124 3123 3122 3122 3121 3121 3120 3120 3120 3120 3120 3119 3119 3119 3119 3119 3120 3120 3120 3120 3120 3121
3144 3143 3143 3142 3141 3141 3140 3139 3138 3137 3137 3136 3135 3134 3133 3132 3132 3131 3130 3129 3129 3128 3127 3126 3125 3125 3124 3123 3122 3121 3121 3120 3119 3119 3118 3117 3117 3116 3116 3116 3115 3115 3115 3115 3115 3114 3115 3115 3115 3115 3116 3116
3142 3141 3141 3140 3139 3139 3138 3137 3136 3135 3134 3133 3132 3132 3131 3130 3129 3128 3127 3126 3126 3125 3124 3123 3123 3122 3121 3120 3119 3118 3117 3117 3116 3116 3115 3114 3113 3113 3112 3112 3111 3111 3111 3111 3111 3110 3110 3110 3110 3110 3111 3111
3140 3139 3139 3138 3138 3137 3136 3135 3134 3133 3132 3131 3130 3129 3128 3127 3126 3125 3124 3123 3123 3122 3121 3120 3120 3119 3118 3117 3116 3115 3115 3114 3113 3112 3112 3111 3110 3110 3109 3108 3108 3107 3107 3106 3106 3106 3106 3105 3105 3105 3105 3106
3138 3137 3137 3136 3135 3135 3134 3133 3132 3131 3130 3129 3128 3127 3126 3124 3123 3122 3121 3121 3120 3119 3118 3117 3116 3116 3115 3114 3113 3112 3112 3111 3110 3109 3109 3108 3107 3107 3106 3105 3104 3104 3103 3102 3102 3101 3101 3101 3100 3100 3100 3100
3136 3135 3135 3134 3133 3132 3131 3130 3129 3128 3127 3126 3125 3124 3123 3122 3121 3120 3119 3118 3117 3116 3115 3114 3113 3112 3112 3111 3110 3109 3108 3108 3107 3106 3105 3105 3104 3103 3102 3101 3101 3100 3099 3099 3098 3097 3097 3096 3096 3095 3095 3095
3134 3133 3132 3132 3131 3130 3129 3128 3127 3125 3124 3123 3122 3121 3120 3119 3118 3117 3116 3115 3114 3113 3112 3111 3110 3109 3108 3107 3106 3105 3104 3104 3103 3102 3101 3101 3100 3099 3099 3098 3097 3096 3096 3095 3094 3093 3093 3092 3091 3091 3091 3090
3131 3131 3130 3129 3128 3127 3126 3125 3124 3123 3122 3121 3120 3119 3118 3116 3115 3114 3113 3112 3111 3110 3108 3107 3107 3105 3104 3104 3103 3102 3101 3100 3099 3098 3097 3097 3096 3095 3095 3094 3093 3093 3092 3091 3090 3089 3089 3088 3087 3087 3086 3086
3129 3128 3127 3126 3125 3124 3123 3122 3121 3120 3119 3118 3117 3116 3115 3114 3113 3111 3110 3109 3108 3107 3106 3104 3103 3102 3101 3100 3099 3098 3097 3096 3095 3094 3094 3093 3092 3091 3090 3089 3089 3088 3087 3087 3086 3085 3085 3084 3083 3082 3082 3081
3126 3125 3124 3123 3122 3121 3120 3119 3118 3117 3116 3115 3114 3113 3112 3111 3109 3108 3107 3106 3105 3104 3103 3102 3100 3099 3098 3097 3096 3095 3093 3092 3091 3090 3089 3089 3088 3087 3086 3085 3084 3084 3083 3082 3082 3081 3080 3080 3079 3078 3077 3076
3123 3122 3121 3120 3119 3118 3117 3116 3115 3114 3113 3111 3111 3110 3108 3107 3106 3105 3104 3103 3102 3100 3099 3098 3097 3095 3094 3093 3092 3090 3089 3088 3087 3086 3085 3084 3083 3082 3082 3081 3080 3079 3078 3078 3077 3076 3075 3075 3074 3073 3073 3072
3120 3119 3118 3117 3116 3115 3114 3113 3112 3111 3109 3108 3107 3106 3105 3104 3103 3102 3101 3099 3098 3096 3095 3093 3092 3091 3090 3088 3087 3086 3085 3084 3083 3082 3080 3079 3079 3078 3077 3076 3075 3074 3073 3073 3072 3071 3070 3069 3069 3068 3067 3067
3117 3116 3115 3114 3113 3112 3111 3110 3109 3107 3106 3105 3104 3103 3102 3101 3100 3098 3097 3096 3094 3092 3091 3089 3088 3086 3085 3084 3082 3081 3080 3079 3078 3077 3075 3074 3073 3072 3071 3071 3070 3069 3068 3067 3067 3066 3065 3064 3063 3063 3062 3062
3113 3113 3111 3110 3109 3108 3107 3106 3105 3104 3103 3102 3101 3099 3098 3097 3096 3095 3093 3092 3090 3088 3087 3085 3083 3082 3081 3079 3078 3076 3075 3074 3073 3071 3070 3069 3068 3067 3066 3065 3064 3063 3062 3062 3061 3060 3059 3058 3058 3057 3056 3056
3110 3109 3108 3107 3106 3105 3104 3103 3102 3100 3099 3098 3097 3096 3094 3093 3092 3090 3089 3087 3086 3084 3082 3081 3079 3078 3076 3075 3073 3072 3070 3069 3068 3066 3065 3064 3062 3061 3060 3059 3058 3057 3056 3056 3055 3054 3053 3052 3051 3051 3050 3050
3106 3105 3104 3103 3102 3101 3100 3099 3098 3096 3095 3094 3092 3091 3090 3088 3087 3086 3084 3082 3081 3079 3077 3076 3074 3073 3071 3070 3069 3067 3066 3064 3063 3062 3060 3059 3057 3056 3054 3053 3052 3051 3050 3049 3048 3048 3047 3046 3045 3044 3043 3043
3103 3101 3100 3099 3098 3097 3096 3095 3094 3092 3091 3089 3088 3086 3085 3084 3082 3081 3079 3077 3075 3074 3072 3071 3069 3068 3066 3065 3064 3062 3061 3059 3058 3056 3055 3053 3052 3050 3049 3047 3046 3045 3043 3043 3042 3041 3041 3040 3039 3038 3037 3036
3099 3098 3097 3096 3094 3093 3092 3091 3090 3088 3087 3085 3083 3082 3081 3079 3077 3076 3074 3072 3071 3069 3067 3066 3064 3063 3061 3060 3059 3057 3056 3054 3053 3051 3050 3048 3046 3045 3043 3042 3040 3039 3037 3036 3035 3034 3034 3033 3032 3031 3031 3030
3095 3094 3093 3092 3091 3089 3088 3087 3086 3084 3083 3081 3079 3078 3076 3075 3073 3071 3070 3068 3067 3065 3063 3061 3060 3058 3057 3055 3054 3052 3051 3050 3048 3046 3045 3043 3041 3039 3037 3036 3035 3033 3032 3030 3028 3027 3027 3026 3024 3023 3023 3023
3091 3090 3089 3088 3086 3085 3083 3082 3081 3080 3078 3076 3074 3073 3072 3070 3069 3067 3065 3064 3062 3060 3059 3057 3055 3053 3052 3050 3049 3047 3045 3044 3043 3041 3039 3037 3035 3033 3031 3030 3029 3028 3026 3024 3022 3021 3019 3018 3017 3016 3014 3014
3087 3085 3084 3083 3082 3080 3079 3078 3076 3075 3073 3071 3069 3068 3067 3065 3064 3062 3060 3059 3057 3056 3054 3052 3050 3049 3047 3045 3044 3042 3040 3038 3037 3035 3033 3031 3030 3028 3026 3024 3022 3021 3020 3018 3016 3014 3012 3011 3010 3009 3007 3006
3082 3081 3079 3078 3077 3075 3074 3072 3071 3070 3068 3066 3064 3063 3062 3060 3058 3057 3055 3053 3052 3051 3049 3047 3046 3044 3042 3040 3038 3036 3034 3032 3031 3029 3027 3025 3023 3022 3020 3018 3016 3014 3013 3012 3011 3008 3006 3004 3001 3000 2999 2997
3077 3076 3074 3073 3072 3070 3068 3067 3066 3064 3062 3060 3059 3058 3056 3055 3053 3051 3049 3048 3046 3045 3044 3042 3040 3039 3036 3034 3032 3031 3029 3027 3025 3023 3021 3019 3017 3015 3014 3012 3010 3008 3006 3005 3004 3003 3000 2998 2995 2993 2991 2989
3072 3071 3070 3068 3067 3065 3064 3062 3061 3059 3057 3055 3053 3052 3051 3049 3047 3046 3044 3042 3041 3039 3038 3036 3034 3033 3031 3029 3027 3025 3022 3020 3018 3016 3015 3013 3011 3009 3007 3006 3004 3002 3000 2998 2996 2995 2994 2992 2989 2987 2984 2982
Wind_Speed
22 23 24 24 25 25 26 26 26 26 27 27 27 27 27 27 27 27 27 27 27 28 28 28 28 28 27 28 27 27 28 28 27 27 27 27 27 26 26 27 27 28 28 28 28 28 29 29 29 29 29 30
23 24 25 26 26 27 27 27 26 27 27 27 27 27 27 28 28 28 28 28 28 28 28 29 29 29 29 29 29 29 29 29 29 28 28 28 28 28 28 27 28 28 29 29 29 29 29 29 29 30 30 31
24 25 25 25 26 26 26 26 26 26 26 26 26 27 27 27 27 27 27 28 28 28 28 28 29 29 29 30 30 30 30 30 30 29 29 29 30 30 29 29 29 29 29 29 30 30 30 30 30 30 31 32
23 24 24 24 24 25 25 25 26 26 26 26 27 27 27 27 27 27 27 27 27 27 28 28 28 28 29 29 30 30 31 31 31 31 30 30 30 31 31 31 30 30 30 30 30 31 31 31 31 31 32 32
22 23 23 23 24 24 25 25 25 26 26 26 26 27 27 27 27 27 27 27 27 27 27 28 28 28 28 29 29 30 30 30 31 31 31 31 31 31 32 32 32 32 31 31 31 31 32 32 32 32 33 33
22 22 22 23 23 23 24 24 24 24 25 25 25 25 25 25 26 26 26 26 26 26 26 27 27 27 28 28 28 29 29 30 30 30 31 31 31 31 31 32 32 32 33 33 33 33 33 33 33 33 34 34
21 21 22 22 22 23 23 23 24 24 24 24 24 24 24 24 23 23 23 24 24 24 25 25 26 26 26 27 27 28 28 29 29 29 30 30 30 31 31 31 32 32 32 33 33 33 33 34 34 34 35 35
21 21 22 22 22 22 22 22 22 22 22 22 22 22 22 22 21 21 21 21 22 22 23 23 24 24 25 25 26 27 27 28 28 29 29 30 30 30 31 31 31 32 32 32 33 33 33 34 34 35 36 36
20 20 20 20 20 20 20 20 20 21 21 21 21 21 21 21 21 21 21 21 22 22 22 22 23 23 24 24 25 25 26 26 27 28 28 29 29 30 30 30 31 31 32 32 33 33 33 33 34 34 35 36
18 18 18 18 19 19 19 20 20 20 21 21 21 21 21 21 21 21 22 22 22 22 22 23 23 23 24 24 25 25 26 26 26 27 27 28 28 29 29 30 30 30 31 31 32 32 33 33 34 34 35 36
17 17 18 18 19 19 19 19 19 20 20 20 20 20 21 21 21 22 22 22 22 22 22 23 23 23 24 24 25 26 26 26 27 27 27 28 28 28 29 29 29 30 30 31 31 32 32 33 33 34 35 35
18 18 18 18 19 18 19 19 19 19 19 20 20 20 21 21 22 22 23 23 23 23 24 24 24 24 25 25 26 26 27 27 27 28 28 28 28 29 29 29 30 30 30 31 31 32 32 33 33 33 34 35
19 19 19 19 19 19 19 19 20 20 20 20 21 21 22 22 23 23 24 24 25 25 25 26 26 26 27 27 27 27 28 28 28 29 29 29 29 29 30 30 30 30 31 31 31 32 32 33 33 34 34 35
19 19 19 19 20 20 20 21 21 21 22 22 23 23 23 24 24 25 25 26 26 26 27 27 28 28 28 29 29 30 30 30 30 30 30 30 30 31 31 31 31 31 32 32 32 33 33 33 34 34 35 35
20 20 20 20 21 21 21 22 22 23 23 24 24 24 25 25 26 26 27 27 28 28 28 29 29 29 29 30 30 30 31 31 32 32 32 32 32 32 32 32 32 32 32 33 33 33 34 34 35 35 35 36
21 21 22 22 22 22 23 23 24 24 25 25 25 26 26 26 27 27 28 28 28 29 29 30 30 30 30 31 31 31 31 32 32 32 33 33 33 33 34 34 33 34 34 34 34 34 34 35 35 36 36 37
23 23 23 23 23 24 24 24 25 25 26 27 27 27 27 27 28 28 28 29 29 30 30 30 31 31 31 31 32 32 32 33 33 33 34 34 34 34 35 35 35 35 35 35 35 35 35 36 36 36 37 38
24 24 24 24 25 25 25 26 26 27 27 28 28 28 29 29 29 29 29 30 30 31 31 31 31 32 32 32 32 33 33 34 34 34 35 35 35 36 36 36 36 36 36 37 37 37 37 37 37 37 37 38
25 25 25 26 26 26 27 27 28 28 29 29 30 30 30 30 30 31 31 32 32 32 33 33 33 33 33 33 34 34 34 35 35 35 36 37 37 37 38 38 38 38 38 38 38 38 39 39 39 39 39 39
26 26 26 26 27 27 28 29 29 30 31 31 31 32 32 32 32 33 33 33 33 34 34 34 35 35 35 35 35 35 36 36 36 37 37 38 38 39 39 40 40 40 40 40 39 40 40 40 40 41 41 41
27 27 27 28 28 29 29 30 31 31 32 33 33 34 34 34 34 34 35 35 35 35 36 36 36 36 36 36 37 37 37 38 38 38 39 39 40 40 41 41 42 42 42 41 41 41 41 41 42 42 42 42
27 28 29 29 29 30 31 31 32 33 33 34 35 35 35 36 36 36 36 36 36 37 37 37 37 38 38 38 38 38 39 39 39 40 40 41 41 42 42 43 43 44 43 43 43 42 42 43 43 43 43 43
28 29 29 30 31 31 32 32 33 33 34 35 36 36 36 36 37 37 37 37 38 38 38 38 39 39 39 39 39 39 40 40 40 40 41 42 42 43 44 44 45 45 45 45 45 44 44 44 44 45 45 45
29 29 30 30 31 32 32 33 33 34 35 36 36 36 37 37 37 37 38 38 39 39 40 40 40 41 41 41 41 41 41 41 41 41 42 42 43 44 44 45 46 46 46 46 46 46 46 45 45 45 46 46
29 29 30 31 31 32 32 33 33 34 35 36 36 36 36 37 37 38 38 39 39 40 40 41 42 42 42 42 42 42 42 42 42 42 42 43 44 44 45 45 46 46 47 48 48 48 47 47 47 47 46 46
30 30 31 31 31 32 32 33 33 34 35 35 36 36 36 37 37 38 38 39 39 40 41 42 42 42 43 43 43 43 43 43 43 43 43 43 44 45 46 46 46 46 47 48 49 49 49 49 49 49 49 48
31 31 32 32 32 32 33 33 33 34 35 36 36 36 36 37 37 38 39 39 40 40 41 42 42 43 43 44 44 44 44 43 43 43 43 44 45 46 47 47 47 47 47 48 49 50 50 50 50 50 51 51
32 33 33 33 33 33 34 34 34 35 36 36 37 37 37 38 38 39 39 40 40 41 41 42 42 43 43 44 44 44 44 44 44 44 44 45 45 46 47 48 48 48 48 49 49 50 51 52 52 52 52 53
34 34 34 34 34 35 35 35 36 36 36 37 38 38 38 39 39 40 40 41 41 41 41 42 42 43 43 44 44 44 44 44 44 44 44 45 46 46 47 48 49 49 49 49 49 50 52 52 53 54 54 55
36 36 36 36 36 36 37 37 38 37 38 39 40 40 40 40 41 41 42 42 42 42 42 42 42 43 43 44 44 44 44 44 44 45 45 46 46 47 47 48 49 50 51 51 50 50 51 52 53 55 56 57
37 37 38 37 37 37 38 39 39 38 39 41 41 41 41 42 42 43 43 44 43 43 43 43 43 43 43 44 44 45 45 45 45 45 46 46 47 47 48 48 49 50 51 52 52 52 52 52 53 54 55 56
Wind_Direction
277 279 280 282 284 285 285 286 287 287 287 287 287 287 287 287 286 286 286 286 286 286 286 286 286 286 285 285 284 283 282 282 281 281 281 281 280 279 278 277 276 275 273 272 271 270 269 268 266 264 262 261
278 280 282 284 285 287 288 288 289 289 288 288 288 288 288 288 288 288 288 288 288 288 287 287 287 287 287 287 287 286 285 284 283 281 281 280 280 280 279 278 277 277 276 274 272 270 269 268 266 265 264 263
281 282 284 285 287 288 289 290 290 291 291 290 290 290 290 290 291 290 290 290 290 289 289 289 289 288 288 288 288 288 288 287 286 285 283 282 282 281 281 280 278 277 277 276 275 273 271 269 267 265 264 263
283 285 286 287 288 289 290 290 291 292 293 293 294 294 294 294 293 293 292 291 291 290 290 289 289 288 288 288 288 288 288 288 288 287 286 285 284 283 283 283 282 280 278 277 276 275 274 272 270 268 265 264
283 285 287 288 289 290 291 291 292 293 294 295 295 295 295 295 295 295 294 294 293 292 291 290 290 289 288 288 287 287 287 287 287 287 287 286 285 284 284 284 284 283 282 280 278 277 275 274 272 271 269 266
285 286 288 289 290 291 292 293 294 294 295 295 296 296 295 295 295 295 295 294 294 293 292 291 291 290 289 289 288 288 287 287 287 286 286 286 285 285 284 284 284 284 284 283 282 280 278 276 274 272 271 269
287 288 290 291 292 293 293 294 294 295 295 295 295 295 294 294 293 293 293 292 292 291 291 290 290 289 289 288 287 287 286 286 286 285 285 284 284 284 283 283 283 283 283 283 282 282 281 280 278 276 273 271
287 289 290 291 292 293 294 295 295 295 295 294 294 294 293 293 293 293 292 292 291 291 290 290 289 288 288 288 287 287 286 286 285 285 285 284 284 283 283 282 282 282 282 282 282 281 281 280 280 279 277 275
287 288 289 290 291 291 292 293 293 293 293 292 292 292 292 293 293 293 293 293 293 293 293 293 292 292 292 291 291 290 289 288 288 287 287 287 286 286 285 284 282 282 281 281 281 281 280 279 279 278 278 278
284 285 286 287 288 289 289 290 290 291 291 291 291 292 293 294 294 294 295 295 295 296 296 296 296 295 295 294 294 293 292 292 291 290 289 289 288 288 287 287 286 284 283 282 280 280 279 278 278 277 276 276
281 282 283 283 284 285 286 286 287 288 289 290 292 293 294 295 296 297 297 298 298 298 297 297 296 296 295 295 294 294 293 293 293 292 291 291 290 290 289 288 288 287 286 285 283 282 280 279 278 277 276 275
279 280 281 282 282 283 284 285 286 287 288 290 291 292 293 294 295 296 297 297 298 297 297 296 296 295 294 294 293 293 293 293 293 293 292 292 292 291 291 290 290 289 288 287 286 285 284 283 281 280 278 276
278 279 280 282 283 284 286 287 288 289 290 291 292 293 293 294 294 295 295 295 295 295 295 295 295 294 294 294 293 293 293 293 292 292 292 292 292 292 292 291 291 291 290 289 288 287 286 285 284 283 282 280
277 278 280 282 284 286 288 289 291 292 293 294 294 294 294 294 294 294 294 294 294 294 294 294 294 294 294 294 294 294 294 294 293 293 293 292 292 292 291 291 291 291 290 290 290 289 288 287 286 284 283 283
278 279 282 284 286 288 289 291 292 293 294 294 294 294 294 294 294 294 294 294 294 294 294 294 294 293 293 293 293 293 292 292 292 292 292 291 291 291 290 290 290 289 289 289 289 289 288 288 287 286 285 284
280 282 285 287 288 290 291 293 293 294 294 294 294 293 293 293 293 293 294 294 293 293 292 292 292 291 291 291 291 291 291 291 290 290 290 290 289 289 289 288 288 288 287 287 287 287 287 287 287 287 286 286
283 285 287 289 291 292 293 294 294 295 295 295 295 295 295 295 295 294 294 293 292 291 290 290 290 290 291 291 291 291 292 292 292 291 291 290 290 289 288 288 287 287 287 286 286 285 285 285 285 285 285 286
285 287 289 290 292 293 294 294 295 295 295 295 295 295 295 295 294 294 293 292 291 291 291 291 291 292 292 293 293 293 294 294 294 294 293 293 292 291 290 289 289 287 287 286 286 285 285 284 284 284 284 284
287 288 289 291 292 293 293 294 294 295 295 295 295 294 294 294 293 292 292 292 292 292 293 293 293 294 295 295 296 296 297 297 297 296 296 295 294 293 292 291 290 289 288 287 286 286 285 284 284 283 283 283
287 288 290 291 291 292 292 293 293 293 293 293 293 293 292 292 291 292 292 292 293 293 294 294 295 296 296 297 298 298 299 299 299 299 298 297 297 296 295 293 292 291 289 288 288 287 286 285 284 283 283 283
287 289 290 290 290 291 291 292 292 292 292 292 292 291 291 291 291 291 292 292 293 293 294 294 295 296 296 297 298 298 299 299 299 300 299 299 299 298 297 295 294 292 291 290 289 288 288 287 286 285 284 283
288 289 290 290 290 290 291 291 292 292 292 291 291 290 291 291 291 292 292 292 293 293 294 294 295 295 296 296 296 297 298 298 299 299 300 300 299 299 298 297 295 294 292 291 290 290 289 289 287 286 285 284
289 290 290 291 291 291 291 291 291 292 291 291 291 291 292 292 293 293 293 294 294 294 295 295 295 295 295 295 296 296 296 297 298 298 298 299 299 299 298 297 296 295 294 292 292 291 290 289 289 288 287 286
289 290 290 290 291 291 291 291 292 292 292 292 292 292 293 294 295 295 295 296 296 296 296 296 296 296 295 296 296 296 296 296 296 297 297 298 298 298 298 297 296 295 294 293 292 292 291 290 289 289 289 288
288 289 289 289 290 290 290 291 292 292 292 292 293 293 294 295 296 296 296 296 296 296 296 296 296 296 295 295 295 295 295 295 295 296 297 297 297 297 297 296 296 296 295 294 293 293 292 291 290 289 288 288
287 287 287 288 289 289 290 290 291 291 292 292 293 294 295 296 296 296 296 296 296 296 296 296 295 295 295 294 294 293 293 293 294 295 296 296 297 297 296 296 296 296 295 295 294 294 293 292 291 290 289 288
286 286 286 288 289 289 290 291 292 292 293 294 294 295 296 296 296 296 296 296 296 296 295 295 295 294 294 293 293 292 292 292 293 294 294 295 296 296 296 296 295 295 295 295 295 295 294 294 293 292 291 290
285 285 287 288 289 289 290 292 292 293 294 295 294 296 297 297 297 297 297 296 296 296 295 295 294 294 293 292 292 292 292 292 293 294 295 295 296 296 296 296 296 295 296 296 296 296 296 295 294 293 292 292
285 286 287 289 289 290 291 293 294 295 296 295 295 296 297 297 297 297 297 296 296 295 295 294 293 293 293 292 292 292 292 293 293 294 295 296 296 296 296 296 296 296 296 296 297 297 297 297 296 295 294 294
286 287 288 289 290 291 292 293 295 296 295 294 295 297 297 297 297 297 296 296 295 295 295 294 293 293 293 293 293 293 293 293 294 295 296 296 296 296 296 297 297 297 297 297 297 297 297 297 296 296 296 295
286 287 288 290 291 291 292 293 294 294 294 294 295 296 296 296 296 296 295 295 295 296 295 295 294 293 293 293 294 294 294 295 295 296 296 297 297 297 297 297 297 298 298 298 298 298 297 296 296 295 295 295